Regional Weather Roundup
Issued by NWS

Home | Current Version | Previous Version | Text Only | Print | Product List | Glossary On
Versions: 1 2 3 4 5 6 7 8 9 10 11 12 13 14 15 16 17 18 19 20 21 22 23 24 25 26 27 28 29 30 31 32 33 34 35 36 37 38 39 40 41 42 43 44 45 46 47 48 49 50
000
ASUS43 KBIS 242110
RWRND

NORTH DAKOTA REGIONAL WEATHER ROUNDUP
NATIONAL WEATHER SERVICE BISMARCK ND
400 PM CDT SUN MAY 24 2015

NOTE: "FAIR" INDICATES FEW OR NO CLOUDS BELOW 12,000 FEET WITH NO
SIGNIFICANT WEATHER AND/OR OBSTRUCTIONS TO VISIBILITY.


NDZ001>003-009>011-017-242200-
NORTHWEST NORTH DAKOTA

CITY           SKY/WX    TMP DP  RH WIND       PRES   REMARKS
WILLISTON      MOSUNNY   76  39  26 E14G25    29.95F
MINOT          PTSUNNY   74  42  31 E15G23    29.95F
MINOT AFB      PTSUNNY   76  41  28 E9G21     29.94F
$$

NDZ018>021-031>035-040>046-242200-
SOUTHWEST NORTH DAKOTA

CITY           SKY/WX    TMP DP  RH WIND       PRES   REMARKS
BISMARCK       CLOUDY    68  50  52 E10       29.95F
DICKINSON      CLOUDY    67  50  54 E12       29.95F
GARRISON         N/A     70  48  45 SE13      29.96F
HETTINGER ARPT CLOUDY    62  49  62 E17G24    29.96F
$$

NDZ004>008-012>016-024-026-027-054-242200-
NORTHEAST NORTH DAKOTA

CITY           SKY/WX    TMP DP  RH WIND       PRES   REMARKS
GRAND FORKS    CLOUDY    75  47  36 SE7       29.95F
GRND FRKS AFB  CLOUDY    75  48  38 VRB5      29.95F
DEVILS LAKE    CLOUDY    72  48  43 SE9       29.96F
$$

NDZ022-023-025-028>030-036>039-047>053-242200-
SOUTHEAST NORTH DAKOTA

CITY           SKY/WX    TMP DP  RH WIND       PRES   REMARKS
FARGO          CLOUDY    71  51  49 E8        29.93F
JAMESTOWN      CLOUDY    68  50  52 E15       29.93F
$$




USA.gov is the U.S. government's official web portal to all federal, state and local government web resources and services.